AO-07 1 07530U 74089B 25296.48335291 -.00000051 00000-0 -27452-4 0 9994 2 07530 101.9984 302.2170 0012000 222.2107 293.7984 12.53692663330857 UO-11 1 14781U 84021B 25296.62868068 .00002256 00000-0 24027-3 0 9997 2 14781 97.7732 260.4659 0006164 241.5758 118.4839 14.89886597221890 AO-27 1 22825U 93061C 25296.65073443 .00000210 00000-0 97074-4 0 9998 2 22825 98.7214 358.7826 0009451 76.6251 283.5984 14.30849449673176 FO-29 1 24278U 96046B 25296.49762608 .00000053 00000-0 90496-4 0 9994 2 24278 98.5514 172.3641 0349847 350.5446 8.9221 13.53257838441155 NOAA-15 1 25338U 98030A 25296.69750882 .00000246 00000-0 11868-3 0 9999 2 25338 98.5274 318.5097 0009548 326.0173 34.0395 14.27040652427568 GO-32 1 25397U 98043D 25296.48083325 .00000155 00000-0 87223-4 0 9994 2 25397 98.9874 278.5432 0001660 138.8468 221.2835 14.24355859417635 ISS 1 25544U 98067A 25296.62050660 .00016574 00000-0 30417-3 0 9990 2 25544 51.6347 30.6088 0004517 329.1103 30.9619 15.49387532535085 NO-44 1 26931U 01043C 25296.65276425 .00000253 00000-0 12557-3 0 9993 2 26931 67.0487 136.0023 0007141 272.8741 87.1544 14.31811510256584 SO-50 1 27607U 02058C 25296.67622392 .00001693 00000-0 22213-3 0 9990 2 27607 64.5516 140.2960 0068990 305.9118 53.5597 14.82120089229396 CO-55 1 27844U 03031E 25296.49660252 .00000547 00000-0 25644-3 0 9990 2 27844 98.6784 303.0437 0010175 147.4659 212.7149 14.24116264157986 CO-57 1 27848U 03031J 25296.43887083 .00000469 00000-0 22567-3 0 9995 2 27848 98.6813 302.8883 0009756 164.5219 195.6260 14.23433743157694 RS-22 1 27939U 03042A 25296.72214301 .00002018 00000-0 32413-3 0 9990 2 27939 98.3380 109.6001 0010433 301.9096 186.5993 14.72754198180737 CO-58 1 28895U 05043F 25296.40294409 .00003026 00000-0 49433-3 0 9997 2 28895 98.2692 82.6521 0013533 234.0978 125.8972 14.71588107 66910 CO-65 1 32785U 08021C 25296.69320218 .00007999 00000-0 55034-3 0 9995 2 32785 97.8018 269.1227 0011392 107.9055 252.3414 15.06122524949553 CO-66 1 32791U 08021J 25296.67655709 .00021285 00000-0 90914-3 0 9996 2 32791 97.7415 280.2005 0006234 72.7003 287.4915 15.22885262951178 RS-30 1 32953U 08025A 25296.73335407 .00000026 00000-0 11296-3 0 9993 2 32953 82.5009 142.5285 0019882 106.8529 253.4734 12.43169701790316 NOAA-19 1 33591U 09005A 25296.68841676 .00000116 00000-0 85637-4 0 9996 2 33591 98.9830 2.0633 0013353 343.3984 16.6749 14.13420500861078 SRMSAT 1 37841U 11058D 25296.70233110 .00000526 00000-0 14204-3 0 9996 2 37841 19.9726 50.7807 0011785 121.6077 22.7124 14.11485467724363 ZACUBE-1 1 39417U 13066B 25296.38311712 .00008531 00000-0 70952-3 0 9993 2 39417 97.7989 252.9073 0041485 321.1129 38.7111 14.98275940645234 Delfi-N3xt 1 39428U 13066N 25296.48467205 .00010533 00000-0 10161-2 0 9995 2 39428 97.8302 212.7374 0078997 272.7555 86.4623 14.90716583639300 GOMX-1 1 39430U 13066Q 25296.68163453 .00002653 00000-0 41032-3 0 9994 2 39430 97.6650 146.9369 0132307 116.2388 245.2487 14.68265636635190 LO-74 1 39440U 13066AA 25296.55964459 .00005804 00000-0 56885-3 0 9999 2 39440 97.8629 240.3498 0062480 90.8517 269.9861 14.91168076641693 AO-73 1 39444U 13066AE 25296.46943612 .00012557 00000-0 88049-3 0 9991 2 39444 97.7983 259.1973 0037855 288.8219 70.8903 15.04750422644002 DTUSAT-2 1 40030U 14033W 25296.47732679 .00012066 00000-0 73491-3 0 9999 2 40030 98.0716 275.1731 0007563 335.6624 24.4246 15.10535659616898 EO-80 1 40032U 14033Y 25296.42400073 .00012115 00000-0 73646-3 0 9993 2 40032 98.0594 274.5823 0005961 259.7956 100.2600 15.10612348616868 LILACSAT-2 1 40908U 15049K 25296.69344846 .00018526 00000-0 42579-3 0 9990 2 40908 97.4973 320.5953 0009569 41.9280 318.2698 15.42680107559181 IO-86 1 40931U 15052B 25151.18580175 .00001241 00000-0 78118-4 0 9996 2 40931 6.0006 24.0987 0012733 338.8432 21.1169 14.78805930523159 Horyu-4 1 41340U 16012D 25296.31741067 .00049883 00000-0 10138-2 0 9992 2 41340 30.9954 294.6759 0003172 61.2516 298.8450 15.45040476533733 Lapan A3 1 41603U 16040E 25296.70361762 .00005127 00000-0 17340-3 0 9994 2 41603 97.1425 296.1006 0012123 135.1601 225.0623 15.30978255518609 CAS-2T 1 41847U 16066G 25296.66559487 .00002505 00000-0 35992-3 0 9990 2 41847 98.4086 9.8957 0345461 126.5587 236.7931 14.43938122470656 TechnoSat 1 42829U 17042E 25296.53453897 .00006480 00000-0 48628-3 0 9996 2 42829 97.4033 98.9314 0018588 179.8762 180.2472 15.02823843451131 AO-91 1 43017U 17073E 25296.54945767 .00011176 00000-0 53891-3 0 9999 2 43017 97.5010 163.9292 0167108 62.7698 299.0446 15.07311912429674 S-Net D 1 43186U 18014G 25296.65271174 .00007463 00000-0 42049-3 0 9995 2 43186 97.5484 198.1797 0010680 110.7155 249.5221 15.13446950422942 S-Net B 1 43187U 18014H 25296.65998257 .00007709 00000-0 43445-3 0 9998 2 43187 97.5490 198.1651 0011398 107.2087 253.0392 15.13423767422941 S-Net A 1 43188U 18014J 25296.65261685 .00007355 00000-0 41436-3 0 9992 2 43188 97.5497 198.3266 0011314 107.7451 252.5016 15.13452012422943 S-Net C 1 43189U 18014K 25296.66276687 .00007653 00000-0 43121-3 0 9996 2 43189 97.5516 198.3738 0012821 102.0486 258.2183 15.13416862421490 Ten-Koh 1 43677U 18084G 25296.46629556 .00003685 00000-0 29099-3 0 9999 2 43677 98.0696 114.1012 0009219 168.6243 191.5190 15.01331437380621 PO-101 1 43678U 18084H 25296.72989882 .00004428 00000-0 36974-3 0 9996 2 43678 98.1090 118.1776 0007651 175.3175 184.8119 14.99077473380774 QO-100 1 43700U 18090A 25296.26826791 .00000155 00000-0 00000+0 0 9997 2 43700 0.0123 220.0903 0001887 31.5458 262.6733 1.00272614 25300 MinXSS-2 1 43758U 18099A 25296.61837565 .00027803 00000-0 92183-3 0 9995 2 43758 97.4865 3.4163 0010807 41.8525 318.3540 15.31178391377747 AO-95 1 43770U 18099N 25296.66354145 .00014176 00000-0 65533-3 0 9990 2 43770 97.4747 353.3608 0011449 98.8292 261.4240 15.20218022377207 SNUSat 2 1 43782U 18099AA 25296.41632023 .00012224 00000-0 62060-3 0 9994 2 43782 97.4434 348.7126 0012484 49.0586 311.1726 15.16979633377074 SnugLite 1 43784U 18099AC 25296.66296286 .00014218 00000-0 65134-3 0 9990 2 43784 97.4243 348.8390 0004337 59.5538 300.6125 15.20581047377292 ITASat 1 1 43786U 18099AE 25296.65014314 .00009304 00000-0 50056-3 0 9998 2 43786 97.4397 348.0257 0015271 95.9029 264.3945 15.14971217377040 EAGLET 1 1 43790U 18099AJ 25296.10183936 .00006733 00000-0 41293-3 0 9996 2 43790 97.4597 346.9467 0013156 85.3041 274.9691 15.10387837376515 ESEO 1 43792U 18099AL 25296.49507454 .00001859 00000-0 14152-3 0 9993 2 43792 97.4304 338.7201 0014013 63.8391 296.4274 15.03189569376239 JO-97 1 43803U 18099AX 25296.64314230 .00019600 00000-0 79477-3 0 9995 2 43803 97.4498 354.6859 0007485 39.1052 321.0725 15.24645824377474 Suomi 100 1 43804U 18099AY 25296.11044402 .00016041 00000-0 71333-3 0 9998 2 43804 97.4563 353.0138 0012253 41.4425 318.7737 15.21516455377289 ISAT 1 43879U 18111D 25296.68339484 .00039015 00000-0 10727-2 0 9999 2 43879 97.5885 214.5788 0010971 79.9984 280.2497 15.37040174374541 UWE-4 1 43880U 18111E 25296.69022159 .00028447 00000-0 94316-3 0 9994 2 43880 97.5827 211.9663 0013675 89.9647 270.3161 15.31141060374417 Sparrow 1 43881U 18111F 25296.53831800 .00042725 00000-0 11085-2 0 9995 2 43881 97.6060 217.9022 0009360 104.1049 256.1236 15.38827571374639 Prox-1 1 44339U 19036A 25296.21806622 .00016578 00000-0 19432-2 0 9991 2 44339 23.9965 248.8856 0007314 183.1912 176.8540 14.83315805338159 Taurus 1 1 44530U 19059C 25296.69210324 .00010503 00000-0 18401-2 0 9996 2 44530 98.6218 82.8427 0008699 331.6941 28.3788 14.67961827323894 Duchifat 3 1 44854U 19089C 25296.76678698 .00180769 00000-0 15163-2 0 9992 2 44854 36.9335 199.4495 0009982 281.9459 78.0185 15.68382917324214 TO-108 1 44881U 19093C 25296.73771718 .00001681 00000-0 19845-3 0 9998 2 44881 97.7810 9.4794 0014598 140.1486 220.0805 14.85929940316292 FloripaSat 1 1 44885U 19093G 25296.70505810 .00008984 00000-0 72065-3 0 9993 2 44885 97.8086 24.6900 0011227 124.9303 235.2977 15.00278888317143 RS-44 1 44909U 19096E 25296.66615808 .00000010 00000-0 82394-6 0 9998 2 44909 82.5188 136.8875 0217169 337.6510 21.5235 12.79744785272091 SALSAT 1 46495U 20068K 25296.42436958 .00012448 00000-0 49940-3 0 9997 2 46495 97.8754 281.0397 0012708 57.1412 303.1046 15.25075420279217 CSS (TIANHE-1) 1 48274U 21035A 25296.51188090 .00034264 00000-0 40559-3 0 9997 2 48274 41.4667 321.8564 0011320 268.6043 91.3499 15.60475993256186 TUBIN 1 48900U 21059X 25296.63084859 .00136371 00000-0 74613-3 0 9990 2 48900 97.6727 118.4901 0001636 85.4198 274.7255 15.79455735241354 CUTE 1 49263U 21088D 25296.69352252 .00030592 00000-0 46581-3 0 9997 2 49263 97.4396 17.4564 0006838 96.6808 263.5224 15.54436618225515 TeikyoSat 4 1 49396U 21102B 25296.65245808 .00003448 00000-0 22579-3 0 9996 2 49396 97.3963 330.1249 0013158 33.1680 327.0371 15.08301470217058 Z-Sat 1 49399U 21102E 25296.68205507 .00005772 00000-0 30504-3 0 9993 2 49399 97.3651 334.1350 0017329 357.5770 2.5376 15.15740832217584 KOSEN 1 1 49402U 21102H 25296.37592750 .00010342 00000-0 44869-3 0 9991 2 49402 97.3547 338.3355 0013990 328.8831 31.1575 15.22441176217938 HO-113 1 50466U 21131B 25296.65802300 .00000971 00000-0 31562-3 0 9994 2 50466 98.5076 25.3319 0005258 90.8458 269.3333 14.41008018201048 SNUGLITE 2 1 52899U 22065F 25296.62646814 .00001936 00000-0 38159-3 0 9997 2 52899 98.1889 77.4627 0008342 52.6190 307.5770 14.63623595176389 UmKA 1 (RS40S) 1 57172U 23091G 25296.69949013 .00009075 00000-0 45920-3 0 9996 2 57172 97.5415 351.3971 0012940 218.0222 142.0099 15.17177386128100 CubeBel-2 (EU11S) 1 57175U 23091K 25296.59463910 .00014000 00000-0 60943-3 0 9991 2 57175 97.5412 353.3621 0010474 221.9556 138.0878 15.22297536128226 ENSO 1 58470U 23185J 25296.89685249 .00484490 92226-4 15344-2 0 9991 2 58470 97.3514 18.4551 0006611 271.7957 88.2559 15.91194991106374 SONATE-2 1 59112U 24043Q 25295.36302710 .00031917 00000-0 76014-3 0 9998 2 59112 97.5303 69.8548 0009566 354.8589 5.2557 15.41498171 91055 MO-122 1 60209U 24125G 25296.56722488 .00032216 00000-0 74536-3 0 9999 2 60209 97.2592 147.0351 0016806 13.3539 346.8150 15.42263520 72869 GRBBeta 1 60237U 24128C 25296.56848355 .00005001 00000-0 36224-3 0 9999 2 60237 61.9911 324.9731 0057040 85.9163 274.8445 15.04040566 70646 Curium One 1 60242U 24128H 25296.54145713 .00009577 00000-0 61706-3 0 9996 2 60242 61.9804 321.0518 0056742 82.4096 278.3437 15.07577532 70718 ROBUSTA-3A 1 60243U 24128J 25296.45818395 .00008986 00000-0 58948-3 0 9997 2 60243 61.9878 322.6677 0056631 79.8796 280.8679 15.06983113 70684 CatSat 1 60246U 24125J 25296.64797691 .00034733 00000-0 96657-3 0 9991 2 60246 97.2406 144.7136 0036508 330.6751 29.2444 15.36061096 70820 HYPERVIEW-1G (RS66S) 1 61772U 24199AP 25296.68517271 .00039751 00000-0 90277-3 0 9992 2 61772 97.3275 165.6683 0013832 66.2015 294.0681 15.42825337 97882 AO-123 1 61781U 24199AY 25296.68073806 .00011277 00000-0 38229-3 0 9995 2 61781 97.3306 162.7137 0017043 75.9338 284.3796 15.30570348 97685 ZIMSAT 2 1 61783U 24199BA 25296.68378514 .00107929 00000-0 15199-2 0 9991 2 61783 97.3205 167.8553 0012175 61.9090 298.3394 15.56188835101188 HADES-R (SO-124) 1 62690U 25009CK 25296.17466128 .00106717 00000-0 23105-2 0 9993 2 62690 97.3972 17.4571 0002333 296.9465 63.1545 15.44050581 42945 HYDRA-T 1 62692U 25009CM 25296.18918735 .00109587 00000-0 23162-2 0 9993 2 62692 97.3968 17.5894 0002459 286.4136 73.6842 15.44752163 42951 JINJUSat 1B 1 63210U 25052A 25296.67298913 .00019212 00000-0 78417-3 0 9990 2 63210 97.4220 189.2204 0003334 165.5378 194.5955 15.24449235 33959 NUSHSAT 1 1 63211U 25052B 25296.43455471 .00023030 00000-0 91953-3 0 9992 2 63211 97.4206 189.0497 0003035 168.6461 191.4846 15.25151999 33921 TEVEL2-4 1 63213U 25052D 25296.67858076 .00020114 00000-0 81594-3 0 9998 2 63213 97.4122 188.9419 0001723 172.8284 187.2979 15.24649310 33955 TEVEL2-5 1 63214U 25052E 25296.68202101 .00019654 00000-0 79862-3 0 9994 2 63214 97.4123 188.9381 0001738 173.5300 186.5960 15.24597826 33954 TEVEL2-6 1 63215U 25052F 25296.68778088 .00019723 00000-0 80245-3 0 9991 2 63215 97.4125 188.9342 0001700 174.0204 186.1054 15.24554453 33951 TEVEL2-1 1 63217U 25052H 25296.65489676 .00020305 00000-0 83303-3 0 9998 2 63217 97.4100 188.7529 0001172 205.0038 155.1143 15.24268338 33942 TEVEL2-3 1 63218U 25052J 25296.65467348 .00020398 00000-0 83646-3 0 9993 2 63218 97.4101 188.7561 0001155 205.9792 154.1388 15.24282638 33946 TEVEL2-2 1 63219U 25052K 25296.65567275 .00020438 00000-0 83848-3 0 9993 2 63219 97.4100 188.7537 0001159 205.2538 154.8643 15.24267020 33943 TEVEL2-9 1 63237U 25052AD 25296.24308492 .00020271 00000-0 86618-3 0 9995 2 63237 97.4167 188.1187 0004982 259.7902 100.2773 15.22882195 33850 TEVEL2-7 1 63238U 25052AE 25296.64688773 .00019389 00000-0 83120-3 0 9996 2 63238 97.4168 188.5006 0005055 258.4810 101.5859 15.22780803 33911 TEVEL2-8 1 63239U 25052AF 25296.65162992 .00019479 00000-0 83574-3 0 9991 2 63239 97.4166 188.4921 0005111 258.8207 101.2455 15.22751591 33913 HYDRA-W 1 63490U 25052BL 25296.44735640 .00062701 00000-0 19260-2 0 9999 2 63490 97.4102 189.8185 0005554 244.9909 115.0757 15.33472913 33991 HADES-ICM (SO-125) 1 63492U 25052BN 25296.65377166 .00050505 00000-0 16108-2 0 9996 2 63492 97.4108 189.8664 0006129 251.3658 108.6918 15.32328993 34011 Dragonfly 1 65729U 98067XH 25296.45445133 .00104344 00000-0 13650-2 0 9995 2 65729 51.6332 30.2543 0002075 39.3381 320.7762 15.57793207 5298 RSP-03 1 65732U 98067XL 25296.46175203 .00089688 00000-0 12097-2 0 9995 2 65732 51.6329 30.3028 0004457 6.7159 353.3892 15.57035678 5303 GHS-01 1 65733U 98067XM 25296.51379551 .00115291 00000-0 14761-2 0 9994 2 65733 51.6338 29.9014 0002407 33.0960 327.0183 15.58315864 5310 BOTAN 1 65942U 98067XP 25296.34540667 .00083663 00000-0 13281-2 0 9998 2 65942 51.6343 31.7737 0004026 315.8180 44.2488 15.52620110 2012 /EX
